Find Starlink 32745

NORAD ID: 62755 Int'l Des: 2025-014 Owner: SPXS Country: US Constellation: starlink operational
LEOCIRCULAR

リアルタイム位置

3D地球を読み込み中...

Starlink 32745について

説明を読み込み中...

次回通過

Passes for default location (London). Set your location on the main map for personalized predictions.

高度履歴

Loading altitude history...

軌道要素

1 62755U 25014W 26122.22906213 .00019826 00000-0 72788-3 0 9996
2 62755 43.0018 212.1909 0000785 221.3022 138.7771 15.27588080 71443
Epoch: May 2, 2026 • Age: 13 hours

現在のステータス

高度 486.5 km
速度 7.63 km/s
衛星直下点 43.16°N, 161.73°E
打ち上げ日 Jan 21, 2025
運用期間 1.2 years
タイプ internet

技術仕様

分類 Payload
質量 730.00 kg
乾燥質量 700.00 kg
総質量 730.00 kg
長さ 0.30 m
直径 4.10 m
スパン 29.00 m
形状 Box + pan
製造者 SPXS
バスタイプ Starlink V2M
フェーズステータス In Orbit
所有者/国 SPXS/US

Most Searched